| time (UTC) | temp C | wind direction | speed KPH | gust KPH | rain 1hr cm | rain 24hr cm | rain mn cm | humidity % | barometer mb |
| 20260905234526 | 21 | 0.0 | 0.0 | 0.00 | 0.00 | 0.00 | 89 | 1015.8 | |
| 20260905233531 | 22 | 158 | 0.0 | 3.2 | 0.00 | 0.00 | 0.00 | 87 | 1015.6 |
| 20260905232518 | 24 | 0.0 | 0.0 | 0.00 | 0.00 | 0.00 | 83 | 1015.6 | |
| 20260905231523 | 25 | 135 | 0.0 | 1.6 | 0.00 | 0.00 | 0.00 | 78 | 1015.6 |
| 20260905230528 | 27 | 135 | 0.0 | 1.6 | 0.00 | 0.00 | 0.00 | 75 | 1015.7 |
| 20260905225532 | 28 | 0.0 | 0.0 | 0.00 | 0.00 | 0.00 | 70 | 1015.5 | |
| 20260905224519 | 28 | 180 | 0.0 | 1.6 | 0.00 | 0.00 | 0.00 | 69 | 1015.3 |
| 20260905223525 | 30 | 89 | 1.6 | 4.8 | 0.00 | 0.00 | 0.00 | 66 | 1015.4 |
| 20260905222529 | 30 | 310 | 1.6 | 3.2 | 0.00 | 0.00 | 0.00 | 62 | 1015.3 |
| 20260905221536 | 30 | 298 | 3.2 | 4.8 | 0.00 | 0.00 | 0.00 | 63 | 1015.2 |
| 20260905220521 | 31 | 318 | 1.6 | 3.2 | 0.00 | 0.00 | 0.00 | 61 | 1015.2 |
| 20260905215525 | 29 | 248 | 1.6 | 4.8 | 0.00 | 0.00 | 0.00 | 66 | 1015.2 |
| 20260905214530 | 30 | 197 | 3.2 | 8.0 | 0.00 | 0.00 | 0.00 | 65 | 1015.1 |
| 20260905213517 | 28 | 291 | 4.8 | 6.4 | 0.00 | 0.00 | 0.00 | 67 | 1015.1 |
| 20260905212522 | 27 | 283 | 3.2 | 8.0 | 0.00 | 0.00 | 0.00 | 70 | 1015.0 |
| 20260905211527 | 26 | 286 | 3.2 | 8.0 | 0.00 | 0.00 | 0.00 | 72 | 1015.0 |
| 20260905210526 | 27 | 343 | 6.4 | 11.3 | 0.00 | 0.00 | 0.00 | 71 | 1015.0 |
| 20260905205518 | 27 | 335 | 6.4 | 9.7 | 0.00 | 0.00 | 0.00 | 70 | 1014.9 |
| 20260905204524 | 27 | 231 | 4.8 | 9.7 | 0.00 | 0.00 | 0.00 | 69 | 1014.9 |
| 20260905203523 | 28 | 268 | 4.8 | 8.0 | 0.00 | 0.00 | 0.00 | 70 | 1015.0 |
| 20260905202515 | 27 | 8 | 3.2 | 6.4 | 0.00 | 0.00 | 0.00 | 72 | 1014.9 |
| 20260905201521 | 26 | 141 | 3.2 | 8.0 | 0.00 | 0.00 | 0.00 | 75 | 1015.0 |
| 20260905200539 | 27 | 13 | 4.8 | 6.4 | 0.00 | 0.00 | 0.00 | 73 | 1015.0 |
| 20260905195538 | 26 | 191 | 1.6 | 4.8 | 0.00 | 0.00 | 0.00 | 78 | 1015.1 |
| 20260905194557 | 27 | 23 | 1.6 | 3.2 | 0.00 | 0.00 | 0.00 | 78 | 1015.2 |
| 20260905193516 | 26 | 338 | 1.6 | 6.4 | 0.00 | 0.00 | 0.00 | 77 | 1015.3 |
| 20260905192515 | 26 | 196 | 3.2 | 4.8 | 0.00 | 0.00 | 0.00 | 74 | 1015.5 |
| 20260905191633 | 26 | 290 | 3.2 | 8.0 | 0.00 | 0.00 | 0.00 | 76 | 1015.6 |
| 20260905190519 | 26 | 300 | 4.8 | 8.0 | 0.00 | 0.00 | 0.00 | 74 | 1015.6 |
| 20260905185524 | 27 | 316 | 4.8 | 8.0 | 0.00 | 0.00 | 0.00 | 75 | 1015.6 |
| 20260905184529 | 28 | 311 | 6.4 | 8.0 | 0.00 | 0.00 | 0.00 | 74 | 1015.8 |
| 20260905183516 | 27 | 345 | 4.8 | 8.0 | 0.00 | 0.00 | 0.00 | 73 | 1015.7 |
| 20260905182521 | 27 | 284 | 6.4 | 8.0 | 0.00 | 0.00 | 0.00 | 73 | 1015.9 |
| 20260905181546 | 27 | 317 | 6.4 | 12.9 | 0.00 | 0.00 | 0.00 | 75 | 1015.9 |
| 20260905180530 | 26 | 2 | 4.8 | 8.0 | 0.00 | 0.00 | 0.00 | 79 | 1015.9 |
| 20260905175517 | 25 | 321 | 4.8 | 6.4 | 0.00 | 0.00 | 0.00 | 80 | 1016.0 |
| 20260905174522 | 25 | 188 | 3.2 | 4.8 | 0.00 | 0.00 | 0.00 | 81 | 1016.0 |
| 20260905173527 | 26 | 178 | 3.2 | 6.4 | 0.00 | 0.00 | 0.00 | 78 | 1016.2 |
| 20260905172553 | 26 | 232 | 4.8 | 6.4 | 0.00 | 0.00 | 0.00 | 79 | 1016.4 |
| 20260905171540 | 25 | 51 | 1.6 | 6.4 | 0.00 | 0.00 | 0.00 | 83 | 1016.5 |
| 20260905170524 | 24 | 347 | 1.6 | 3.2 | 0.00 | 0.00 | 0.00 | 81 | 1016.6 |
| 20260905165549 | 24 | 105 | 3.2 | 4.8 | 0.00 | 0.00 | 0.00 | 82 | 1016.7 |
| 20260905164516 | 25 | 266 | 3.2 | 4.8 | 0.00 | 0.00 | 0.00 | 78 | 1016.7 |
| 20260905163521 | 25 | 277 | 3.2 | 6.4 | 0.00 | 0.00 | 0.00 | 80 | 1016.9 |
| 20260905162526 | 25 | 307 | 3.2 | 6.4 | 0.00 | 0.00 | 0.00 | 77 | 1016.9 |
| 20260905161530 | 26 | 314 | 6.4 | 8.0 | 0.00 | 0.00 | 0.00 | 77 | 1017.0 |
| 20260905160517 | 26 | 312 | 4.8 | 8.0 | 0.00 | 0.00 | 0.00 | 77 | 1017.1 |
| 20260905155522 | 24 | 280 | 1.6 | 4.8 | 0.00 | 0.00 | 0.00 | 79 | 1017.3 |
| 20260905154528 | 25 | 240 | 4.8 | 6.4 | 0.00 | 0.00 | 0.00 | 81 | 1017.3 |
| 20260905153532 | 25 | 170 | 4.8 | 4.8 | 0.00 | 0.00 | 0.00 | 80 | 1017.3 |
| 20260905152520 | 23 | 199 | 1.6 | 3.2 | 0.00 | 0.00 | 0.00 | 82 | 1017.4 |
| 20260905151544 | 23 | 178 | 1.6 | 3.2 | 0.00 | 0.00 | 0.00 | 85 | 1017.4 |
| 20260905150529 | 23 | 162 | 3.2 | 4.8 | 0.00 | 0.00 | 0.00 | 86 | 1017.4 |
| 20260905145516 | 23 | 304 | 1.6 | 3.2 | 0.00 | 0.00 | 0.00 | 86 | 1017.4 |
| 20260905144541 | 23 | 180 | 1.6 | 3.2 | 0.00 | 0.00 | 0.00 | 85 | 1017.2 |
| 20260905143526 | 23 | 68 | 0.0 | 1.6 | 0.00 | 0.00 | 0.00 | 86 | 1017.1 |
| 20260905142530 | 24 | 0.0 | 0.0 | 0.00 | 0.00 | 0.00 | 85 | 1017.1 | |
| 20260905141518 | 23 | 212 | 1.6 | 3.2 | 0.00 | 0.00 | 0.00 | 86 | 1016.9 |
| 20260905140523 | 24 | 97 | 1.6 | 3.2 | 0.00 | 0.00 | 0.00 | 85 | 1016.8 |
| 20260905135527 | 23 | 184 | 3.2 | 3.2 | 0.00 | 0.00 | 0.00 | 86 | 1016.9 |
| 20260905134532 | 23 | 264 | 1.6 | 4.8 | 0.00 | 0.00 | 0.00 | 85 | 1016.6 |
| 20260905133519 | 23 | 230 | 1.6 | 6.4 | 0.00 | 0.00 | 0.00 | 89 | 1016.6 |
| 20260905132524 | 22 | 280 | 1.6 | 4.8 | 0.00 | 0.00 | 0.00 | 91 | 1016.8 |
| 20260905131529 | 22 | 0.0 | 1.6 | 0.00 | 0.00 | 0.00 | 91 | 1016.8 | |
| 20260905130516 | 22 | 0.0 | 0.0 | 0.00 | 0.00 | 0.00 | 91 | 1016.8 | |
| 20260905125520 | 22 | 187 | 1.6 | 3.2 | 0.00 | 0.00 | 0.00 | 91 | 1016.6 |
| 20260905124526 | 22 | 165 | 0.0 | 3.2 | 0.00 | 0.00 | 0.00 | 93 | 1016.3 |
| 20260905123530 | 21 | 184 | 1.6 | 4.8 | 0.00 | 0.00 | 0.00 | 94 | 1016.2 |
| 20260905122518 | 21 | 192 | 3.2 | 6.4 | 0.00 | 0.00 | 0.00 | 95 | 1016.3 |
| 20260905121522 | 21 | 186 | 3.2 | 4.8 | 0.00 | 0.00 | 0.00 | 97 | 1016.3 |
| 20260905120527 | 20 | 178 | 1.6 | 3.2 | 0.00 | 0.00 | 0.00 | 99 | 1016.3 |
| 20260905115526 | 20 | 152 | 1.6 | 3.2 | 0.00 | 0.00 | 0.00 | 99 | 1016.4 |
| 20260905114519 | 20 | 180 | 0.0 | 3.2 | 0.00 | 0.00 | 0.00 | 99 | 1016.4 |
| 20260905113523 | 20 | 0.0 | 0.0 | 0.00 | 0.00 | 0.00 | 99 | 1016.2 | |
| 20260905112542 | 20 | 0.0 | 0.0 | 0.00 | 0.00 | 0.00 | 99 | 1016.1 | |
| 20260905111537 | 19 | 174 | 0.0 | 3.2 | 0.00 | 0.00 | 0.00 | 99 | 1016.1 |
| 20260905110521 | 20 | 151 | 0.0 | 3.2 | 0.00 | 0.00 | 0.00 | 99 | 1016.1 |
| 20260905105519 | 19 | 262 | 1.6 | 4.8 | 0.00 | 0.00 | 0.00 | 99 | 1015.9 |
| 20260905104519 | 19 | 0.0 | 0.0 | 0.00 | 0.00 | 0.00 | 99 | 1015.8 | |
| 20260905103517 | 19 | 0.0 | 0.0 | 0.00 | 0.00 | 0.00 | 99 | 1015.3 | |
| 20260905102517 | 19 | 0.0 | 0.0 | 0.00 | 0.00 | 0.00 | 99 | 1015.3 | |
| 20260905101536 | 19 | 0.0 | 0.0 | 0.00 | 0.00 | 0.00 | 99 | 1015.3 | |
| 20260905100532 | 19 | 0.0 | 0.0 | 0.00 | 0.00 | 0.00 | 99 | 1015.2 | |
| 20260905095520 | 19 | 0.0 | 1.6 | 0.00 | 0.00 | 0.00 | 99 | 1015.0 | |
| 20260905094524 | 19 | 158 | 0.0 | 3.2 | 0.00 | 0.00 | 0.00 | 99 | 1015.2 |
| 20260905093529 | 19 | 161 | 1.6 | 3.2 | 0.00 | 0.00 | 0.00 | 99 | 1015.1 |
| 20260905092536 | 19 | 0.0 | 0.0 | 0.00 | 0.00 | 0.00 | 99 | 1015.2 | |
| 20260905091521 | 19 | 180 | 1.6 | 3.2 | 0.00 | 0.00 | 0.00 | 99 | 1015.2 |
| 20260905090526 | 19 | 113 | 0.0 | 1.6 | 0.00 | 0.00 | 0.00 | 99 | 1015.2 |
| 20260905085531 | 19 | 160 | 1.6 | 3.2 | 0.00 | 0.00 | 0.00 | 99 | 1015.1 |
| 20260905084518 | 19 | 186 | 1.6 | 3.2 | 0.00 | 0.00 | 0.00 | 99 | 1014.9 |
| 20260905083522 | 20 | 166 | 1.6 | 3.2 | 0.00 | 0.00 | 0.00 | 99 | 1014.9 |
| 20260905082527 | 20 | 169 | 1.6 | 3.2 | 0.00 | 0.00 | 0.00 | 99 | 1015.0 |
| 20260905081532 | 20 | 158 | 1.6 | 4.8 | 0.00 | 0.00 | 0.00 | 99 | 1015.0 |
| 20260905080519 | 20 | 163 | 1.6 | 3.2 | 0.00 | 0.00 | 0.00 | 99 | 1015.0 |
| 20260905075525 | 20 | 158 | 0.0 | 3.2 | 0.00 | 0.00 | 0.00 | 99 | 1015.2 |
| 20260905074529 | 20 | 161 | 1.6 | 3.2 | 0.00 | 0.00 | 0.00 | 99 | 1015.2 |
| 20260905073516 | 20 | 180 | 0.0 | 1.6 | 0.00 | 0.00 | 0.00 | 99 | 1015.4 |
| 20260905072521 | 20 | 0.0 | 0.0 | 0.00 | 0.00 | 0.00 | 99 | 1015.4 | |
| 20260905071606 | 21 | 0.0 | 0.0 | 0.00 | 0.00 | 0.00 | 99 | 1015.5 | |
| 20260905070531 | 21 | 161 | 3.2 | 4.8 | 0.00 | 0.00 | 0.00 | 99 | 1015.6 |
| 20260905065518 | 21 | 158 | 0.0 | 4.8 | 0.00 | 0.00 | 0.00 | 99 | 1015.6 |
| 20260905064523 | 21 | 0.0 | 0.0 | 0.00 | 0.00 | 0.00 | 99 | 1015.8 | |
| 20260905063527 | 21 | 157 | 3.2 | 4.8 | 0.00 | 0.00 | 0.00 | 99 | 1016.0 |
| 20260905062532 | 20 | 158 | 1.6 | 3.2 | 0.00 | 0.00 | 0.00 | 99 | 1015.9 |
| 20260905061520 | 20 | 0.0 | 0.0 | 0.00 | 0.00 | 0.00 | 99 | 1016.0 | |
| 20260905060524 | 20 | 0.0 | 0.0 | 0.00 | 0.00 | 0.00 | 99 | 1016.1 | |
| 20260905055529 | 20 | 0.0 | 0.0 | 0.00 | 0.00 | 0.00 | 99 | 1016.2 | |
| 20260905054516 | 21 | 0.0 | 0.0 | 0.00 | 0.00 | 0.00 | 99 | 1016.2 | |
| 20260905053521 | 21 | 141 | 1.6 | 4.8 | 0.00 | 0.00 | 0.00 | 99 | 1016.3 |
| 20260905052546 | 21 | 165 | 3.2 | 4.8 | 0.00 | 0.00 | 0.00 | 99 | 1016.5 |
| 20260905051530 | 21 | 143 | 1.6 | 4.8 | 0.00 | 0.00 | 0.00 | 99 | 1016.5 |
| 20260905050518 | 21 | 0.0 | 0.0 | 0.00 | 0.00 | 0.00 | 99 | 1016.5 | |
| 20260905045522 | 21 | 163 | 1.6 | 3.2 | 0.00 | 0.00 | 0.00 | 99 | 1016.6 |
| 20260905044528 | 21 | 181 | 1.6 | 3.2 | 0.00 | 0.00 | 0.00 | 99 | 1016.5 |
| 20260905043553 | 21 | 180 | 0.0 | 3.2 | 0.00 | 0.00 | 0.00 | 99 | 1016.5 |
| 20260905042520 | 21 | 113 | 0.0 | 3.2 | 0.00 | 0.00 | 0.00 | 99 | 1016.6 |
| 20260905041545 | 21 | 0.0 | 0.0 | 0.00 | 0.00 | 0.00 | 99 | 1016.6 | |
| 20260905040529 | 21 | 0.0 | 0.0 | 0.00 | 0.00 | 0.00 | 99 | 1016.6 | |
| 20260905035516 | 21 | 124 | 1.6 | 3.2 | 0.00 | 0.00 | 0.00 | 99 | 1016.6 |
| 20260905034541 | 22 | 104 | 3.2 | 4.8 | 0.00 | 0.00 | 0.00 | 99 | 1016.7 |
| 20260905033526 | 21 | 158 | 1.6 | 4.8 | 0.00 | 0.03 | 0.00 | 99 | 1016.5 |
| 20260905032531 | 21 | 134 | 3.2 | 4.8 | 0.00 | 0.05 | 0.00 | 99 | 1016.4 |
| 20260905031538 | 21 | 127 | 1.6 | 3.2 | 0.00 | 0.05 | 0.00 | 99 | 1016.4 |
| 20260905030523 | 21 | 164 | 1.6 | 4.8 | 0.00 | 0.05 | 0.00 | 99 | 1016.3 |
| 20260905025548 | 21 | 0.0 | 0.0 | 0.00 | 0.05 | 0.00 | 99 | 1016.2 | |
| 20260905024526 | 21 | 0.0 | 0.0 | 0.00 | 0.08 | 0.00 | 99 | 1016.2 | |
| 20260905023519 | 21 | 0.0 | 4.8 | 0.00 | 0.08 | 0.00 | 99 | 1016.2 | |
| 20260905022524 | 21 | 162 | 1.6 | 3.2 | 0.00 | 0.10 | 0.00 | 99 | 1016.1 |
| 20260905021524 | 21 | 172 | 1.6 | 4.8 | 0.00 | 0.10 | 0.00 | 99 | 1016.1 |
| 20260905020517 | 21 | 0.0 | 0.0 | 0.00 | 0.10 | 0.00 | 99 | 1016.0 | |
| 20260905015541 | 21 | 158 | 3.2 | 4.8 | 0.00 | 0.10 | 0.00 | 99 | 1016.0 |
| 20260905014540 | 22 | 180 | 1.6 | 3.2 | 0.00 | 0.10 | 0.00 | 99 | 1016.1 |
| 20260905013519 | 22 | 157 | 1.6 | 3.2 | 0.00 | 0.10 | 0.00 | 99 | 1016.1 |
| 20260905012518 | 22 | 0.0 | 0.0 | 0.00 | 0.10 | 0.00 | 99 | 1016.1 | |
| 20260905011517 | 22 | 0.0 | 0.0 | 0.00 | 0.10 | 0.00 | 99 | 1016.2 | |
| 20260905010515 | 22 | 0.0 | 0.0 | 0.00 | 0.10 | 0.00 | 99 | 1016.2 | |
| 20260905005533 | 23 | 162 | 0.0 | 3.2 | 0.00 | 0.10 | 0.00 | 98 | 1016.2 |
| 20260905004520 | 23 | 0.0 | 0.0 | 0.00 | 0.10 | 0.00 | 98 | 1016.1 | |
| 20260905003525 | 23 | 0.0 | 0.0 | 0.00 | 0.10 | 0.00 | 97 | 1016.2 | |
| 20260905002529 | 23 | 0.0 | 0.0 | 0.00 | 0.10 | 0.00 | 96 | 1015.7 | |
| 20260905001536 | 24 | 0.0 | 0.0 | 0.00 | 0.10 | 0.00 | 94 | 1015.7 | |
| 20260905000521 | 24 | 0.0 | 0.0 | 0.00 | 0.10 | 0.00 | 94 | 1015.7 | |
| 20260904235546 | 25 | 174 | 1.6 | 3.2 | 0.00 | 0.10 | 0.00 | 91 | 1015.9 |